Date,TemperatureHighF,TemperatureAvgF,TemperatureLowF,DewpointHighF,DewpointAvgF,DewpointLowF,HumidityHigh,HumidityAvg,HumidityLow,PressureMaxIn,PressureMinIn,WindSpeedMaxMPH,WindSpeedAvgMPH,GustSpeedMaxMPH,PrecipitationSumIn
2013-1-1,48.6,32.8,24.7,42.7,29.8,22.1,93,89,75,30.43,30.30,6,1,6,0.00
2013-1-2,53.5,29.8,22.0,41.5,25.6,20.0,94,85,56,30.31,30.16,6,0,6,0.00
2013-1-3,46.8,29.6,20.0,39.3,25.7,17.5,92,86,70,30.26,30.13,2,0,2,0.01
2013-1-4,69.7,45.2,37.1,52.6,39.5,33.5,91,82,51,30.31,30.15,4,0,4,0.00
2013-1-5,42.5,39.7,36.7,39.8,37.5,34.3,94,92,89,30.19,30.14,4,0,4,0.00
2013-1-6,62.3,44.7,36.2,54.0,39.9,34.3,95,84,59,30.23,30.12,10,1,10,0.00
2013-1-7,59.4,50.0,45.5,52.2,45.6,40.0,91,85,75,30.24,30.09,11,3,11,0.01
2013-1-8,55.8,50.4,45.2,49.3,45.9,41.6,91,85,75,30.23,29.96,11,2,11,0.00
2013-1-9,49.9,43.1,33.1,45.3,39.7,30.8,92,88,79,30.01,29.78,10,2,10,0.19
2013-1-10,49.3,36.9,32.6,42.4,34.0,30.5,93,89,75,30.14,30.00,8,1,8,0.10
2013-1-11,56.9,36.4,26.1,47.3,31.4,23.2,92,83,62,30.30,30.13,7,1,7,0.01
2013-1-12,50.8,28.9,19.8,42.2,25.3,17.3,93,86,63,30.39,30.28,6,1,6,0.01
2013-1-13,31.0,28.9,27.7,27.3,25.9,25.0,91,88,86,30.47,30.38,5,1,5,0.00
2013-1-14,55.3,34.3,28.3,42.7,28.4,25.2,89,80,52,30.55,30.47,4,0,4,0.00
2013-1-15,39.1,33.6,24.5,35.0,30.5,21.7,92,88,85,30.63,30.53,7,1,7,0.00
2013-1-16,36.5,34.2,32.6,34.1,32.1,30.8,93,92,90,30.63,30.48,4,1,4,0.00
2013-1-17,35.3,32.6,30.8,33.0,30.8,29.0,94,93,92,30.48,30.31,4,1,4,0.00
2013-1-18,35.5,32.7,30.6,33.3,30.9,29.1,94,93,91,30.32,30.26,4,0,4,0.00
2013-1-19,37.1,32.0,29.2,34.7,30.2,27.6,94,93,90,30.34,30.27,2,0,3,0.01
2013-1-20,32.6,30.1,28.8,30.8,28.4,27.1,94,94,91,30.35,30.24,3,0,3,0.00
2013-1-21,34.9,30.2,27.9,32.8,28.4,26.3,95,93,90,30.27,30.15,2,0,2,0.01
2013-1-22,33.8,30.1,27.2,31.7,28.3,25.4,94,93,91,30.16,29.95,2,0,2,0.00
2013-1-23,37.4,34.7,31.3,35.8,32.9,29.5,95,93,91,30.19,29.90,3,0,3,0.29
2013-1-24,45.2,39.1,34.0,43.6,37.6,32.6,96,94,92,30.21,30.11,3,0,3,0.23
2013-1-25,52.9,46.3,36.2,51.8,44.7,34.3,96,94,92,30.16,29.99,5,0,5,0.22
2013-1-26,52.2,42.3,37.4,45.1,39.3,35.8,95,89,72,30.12,29.98,9,2,9,0.24
2013-1-27,44.1,40.6,36.7,41.0,38.3,34.6,94,92,87,30.20,30.10,7,2,7,0.11
2013-1-28,45.2,42.5,38.7,43.0,40.1,36.5,93,91,89,30.28,30.13,7,2,7,0.04
2013-1-29,49.0,44.9,37.4,46.0,42.0,35.3,93,90,83,30.52,30.28,8,2,8,0.01
2013-1-30,52.4,45.1,38.0,48.1,42.3,35.8,94,90,83,30.54,30.46,6,1,6,0.00
2013-1-31,60.3,47.9,41.6,52.9,43.9,38.1,94,86,68,30.46,30.35,4,0,4,0.04
2013-2-1,46.4,39.7,31.5,43.7,37.9,29.7,95,93,89,30.35,30.24,4,0,5,0.01
2013-2-2,55.1,42.7,38.2,48.3,39.9,35.5,95,90,76,30.32,30.26,3,0,3,0.00
2013-2-3,50.4,44.3,41.2,45.4,41.5,39.3,94,90,81,30.34,30.23,5,1,5,0.00
2013-2-4,64.1,47.4,38.5,54.4,42.4,36.5,94,83,62,30.24,29.96,3,0,3,0.00
2013-2-5,54.5,46.6,42.8,47.8,42.4,39.1,92,85,75,30.11,29.96,12,2,12,0.27
2013-2-6,57.1,48.0,40.7,45.6,40.7,36.5,90,77,59,30.13,29.87,11,3,11,0.10
2013-2-7,52.0,42.6,36.4,44.7,37.1,33.4,93,81,64,30.11,29.97,12,2,12,0.03
2013-2-8,44.5,39.9,36.9,39.4,36.0,33.4,91,86,78,30.28,30.11,6,1,6,0.00
2013-2-9,54.0,42.7,34.9,47.4,38.2,32.3,93,85,69,30.31,30.26,3,0,3,0.02
2013-2-10,51.8,43.9,41.4,45.6,39.9,37.7,93,86,77,30.33,30.28,7,1,7,0.00
2013-2-11,57.2,46.7,41.0,47.6,39.8,36.6,87,77,61,30.41,30.30,5,1,5,0.01
2013-2-12,60.8,49.1,44.6,52.2,44.6,40.8,91,85,69,30.49,30.41,6,1,6,0.00
2013-2-13,53.6,48.6,44.1,48.4,44.7,40.8,91,86,80,30.50,30.44,4,1,4,0.00
2013-2-14,66.8,47.3,37.8,54.4,42.1,35.1,94,83,60,30.56,30.44,8,1,8,0.00
2013-2-15,46.8,42.7,36.7,43.3,40.1,34.8,94,91,86,30.45,30.23,7,1,7,0.00
2013-2-16,52.6,43.3,32.9,47.7,40.0,31.2,95,88,74,30.30,30.24,7,1,7,0.00
2013-2-17,65.7,42.5,31.5,52.2,35.7,28.9,94,79,46,30.30,30.08,7,1,7,0.00
2013-2-18,49.1,39.3,30.6,38.4,33.6,27.4,92,80,63,30.08,29.74,7,1,7,0.02
2013-2-19,51.1,42.2,37.6,45.4,37.5,34.4,91,84,68,30.00,29.65,5,1,5,0.10
2013-2-20,53.5,41.7,32.0,43.3,36.7,29.5,92,83,64,30.13,30.00,6,1,6,0.08
2013-2-21,46.4,41.7,37.4,40.8,38.4,34.7,92,88,79,30.25,30.13,8,2,8,0.06
2013-2-22,47.5,43.7,38.2,43.2,40.0,35.2,92,86,75,30.23,29.98,11,4,11,0.23
2013-2-23,50.6,39.3,31.3,44.0,35.8,28.9,93,87,73,30.46,30.14,12,1,12,0.22
2013-2-24,60.1,43.3,31.3,45.5,34.9,29.2,94,74,46,30.45,30.13,8,2,8,0.00
2013-2-25,54.4,43.3,35.8,45.2,37.6,32.2,90,81,57,30.41,30.10,10,2,10,0.17
2013-2-26,61.2,41.5,27.7,47.4,34.1,25.5,93,76,50,30.41,30.24,5,1,5,0.00
2013-2-27,54.7,46.5,39.4,44.6,40.0,35.1,89,79,61,30.31,30.23,6,1,6,0.07
2013-2-28,56.9,52.6,47.3,53.0,48.9,43.8,90,88,84,30.48,30.23,8,2,8,0.02
2013-3-1,69.8,55.7,47.2,59.9,49.2,43.8,91,80,57,30.48,30.31,7,1,7,0.01
2013-3-2,56.5,50.9,45.0,51.7,46.8,41.7,90,86,80,30.32,30.19,7,1,7,0.05
2013-3-3,60.1,45.1,32.8,46.3,35.1,27.5,91,70,45,30.30,30.19,13,2,13,0.02
2013-3-4,61.9,41.3,28.1,46.5,34.6,24.4,89,78,54,30.19,29.90,5,1,5,0.00
2013-3-5,46.8,42.1,34.2,43.7,39.4,31.2,93,90,86,29.90,29.60,5,1,5,0.51
2013-3-6,49.1,43.1,38.7,44.9,40.0,35.0,93,89,78,29.97,29.55,14,2,14,0.61
2013-3-7,70.2,46.3,29.5,51.4,37.1,27.3,95,73,46,30.04,29.96,6,1,6,0.00
2013-3-8,53.8,43.3,35.5,45.0,37.4,31.9,90,80,64,30.20,30.00,8,1,8,0.00
2013-3-9,69.7,44.3,29.0,51.8,35.6,26.6,93,74,47,30.49,30.20,5,1,5,0.00
2013-3-10,70.6,50.9,30.6,48.9,39.7,27.6,91,68,42,30.50,30.38,5,1,5,0.00
2013-3-11,74.9,55.8,46.8,58.3,48.0,42.2,88,76,50,30.41,30.24,6,1,6,0.00
2013-3-12,61.9,52.0,43.9,52.7,46.6,41.0,92,82,65,30.25,30.15,5,1,5,0.00
2013-3-13,68.2,57.1,46.3,55.5,48.8,42.0,87,75,60,30.23,30.08,4,1,4,0.00
2013-3-14,61.7,53.1,43.9,51.0,45.3,40.6,91,76,55,30.23,30.06,8,1,8,0.00
2013-3-15,73.1,57.9,48.6,57.9,48.3,43.7,85,71,51,30.23,30.16,6,1,6,0.00
2013-3-16,52.4,48.1,43.0,46.1,43.5,38.7,90,84,75,30.20,30.07,10,2,10,0.05
2013-3-17,61.9,44.9,34.6,45.5,35.8,31.3,90,72,49,30.33,30.20,7,1,7,0.00
2013-3-18,69.5,46.4,29.2,48.2,35.1,25.7,92,67,39,30.29,30.10,10,1,10,0.00
2013-3-19,53.5,45.5,38.9,49.6,39.7,31.8,92,80,70,30.10,29.68,7,0,7,0.42
2013-3-20,53.1,48.8,36.7,49.9,44.3,33.1,92,85,69,30.22,29.62,13,4,13,0.58
2013-3-21,53.5,41.0,34.4,43.7,35.4,31.2,90,81,63,30.34,30.22,14,2,14,0.03
2013-3-22,59.9,41.6,34.6,47.2,34.3,30.3,88,76,49,30.38,30.32,9,1,9,0.01
2013-3-23,58.0,41.2,28.1,44.7,33.3,25.3,91,75,54,30.37,30.24,7,1,7,0.00
2013-3-24,59.4,46.6,31.5,45.1,37.5,27.8,89,72,56,30.24,30.06,5,1,5,0.00
2013-3-25,63.0,48.7,35.5,47.7,40.2,32.1,90,74,55,30.06,29.92,7,1,7,0.01
2013-3-26,60.5,49.5,43.7,50.2,44.0,39.6,91,82,66,30.02,29.95,4,1,4,0.05
2013-3-27,71.5,51.5,40.1,57.2,45.6,37.4,93,82,57,29.99,29.89,9,1,9,0.14
2013-3-28,71.6,55.8,47.7,59.1,49.8,45.4,92,81,59,30.14,29.98,8,1,8,0.07
2013-3-29,75.1,57.5,48.4,60.5,50.8,45.1,92,79,57,30.19,30.10,6,1,6,0.01
2013-3-30,77.9,56.4,43.6,58.6,48.8,40.9,94,77,48,30.15,29.93,6,1,8,0.00
2013-3-31,81.9,61.0,47.0,59.9,49.9,43.2,89,69,40,30.03,29.94,10,2,10,0.00
2013-4-1,65.5,56.1,49.7,54.7,49.8,45.5,87,80,65,30.19,30.02,5,1,6,0.00
2013-4-2,76.3,57.7,49.7,58.2,48.7,44.4,87,74,49,30.21,30.10,6,1,6,0.00
2013-4-3,66.8,55.2,40.9,55.2,48.5,37.9,91,79,64,30.15,29.89,6,1,6,0.00
2013-4-4,62.3,56.3,51.5,57.5,52.1,46.7,92,86,69,29.91,29.71,12,2,12,0.23
2013-4-5,59.9,54.1,51.1,52.5,49.6,48.0,90,85,71,29.98,29.87,10,3,10,0.18
2013-4-6,56.7,50.9,48.2,52.8,47.6,44.9,93,88,83,30.04,29.74,10,2,10,0.68
2013-4-7,56.3,48.4,40.0,47.6,42.6,36.5,89,81,63,30.00,29.69,17,4,17,0.06
2013-4-8,62.5,48.2,37.3,52.0,42.0,34.3,91,80,61,30.28,30.00,5,1,5,0.07
2013-4-9,63.4,51.1,40.0,50.1,43.3,37.1,91,76,57,30.34,30.24,4,0,4,0.00
2013-4-10,64.1,52.1,42.7,53.5,45.5,38.5,91,79,61,30.34,30.22,9,2,9,0.01
2013-4-11,65.5,49.0,37.1,49.6,39.6,33.5,90,72,47,30.35,30.15,11,1,11,0.00
2013-4-12,65.3,49.3,32.8,50.7,40.0,29.8,91,72,51,30.15,29.90,11,1,11,0.00
2013-4-13,60.1,48.5,38.5,46.4,37.3,32.0,85,66,48,30.12,29.96,10,3,10,0.03
2013-4-14,58.0,44.4,38.3,48.1,38.4,32.4,87,80,65,30.12,29.94,6,1,6,0.22
2013-4-15,60.8,46.8,39.4,48.9,39.3,35.2,90,76,55,30.18,29.95,9,1,9,0.15
2013-4-16,68.8,49.6,38.3,50.0,40.4,35.3,90,72,43,30.38,30.18,8,2,8,0.01
2013-4-17,67.9,49.6,33.7,50.0,39.7,30.6,91,71,42,30.49,30.38,5,1,6,0.00
2013-4-18,71.6,56.8,45.0,50.0,44.5,39.9,83,65,45,30.47,30.33,5,1,5,0.00
2013-4-19,61.9,53.2,48.6,53.5,47.6,43.1,90,81,69,30.35,30.24,8,2,8,0.12
2013-4-20,74.7,55.9,46.6,54.6,45.7,41.1,89,71,44,30.37,30.26,6,1,6,0.28
2013-4-21,68.8,54.6,45.9,51.8,45.4,40.4,84,72,50,30.33,30.24,10,1,10,0.00
2013-4-22,69.3,54.2,40.5,52.3,41.7,33.1,86,65,42,30.38,30.28,16,3,16,0.00
2013-4-23,73.4,56.1,33.5,44.7,37.0,27.9,82,52,32,30.34,30.13,10,2,10,0.00
2013-4-24,78.5,59.1,36.4,47.4,39.4,30.4,81,51,30,30.21,30.00,13,1,13,0.00
2013-4-25,85.0,63.6,37.8,52.9,43.0,31.9,82,51,26,30.15,30.02,0,0,0,0.00
2013-4-26,87.1,65.1,43.4,57.2,48.0,38.7,85,57,33,30.26,30.15,0,0,0,0.00
2013-4-27,86.2,64.7,44.8,52.8,42.3,33.3,84,50,21,30.29,30.21,0,0,0,0.00
2013-4-28,76.0,60.3,46.6,52.1,45.2,37.8,79,60,38,30.32,30.16,0,0,0,0.00
2013-4-29,73.6,55.7,38.9,51.9,42.4,30.4,84,63,35,30.25,30.15,0,0,0,0.00
2013-4-30,65.3,49.2,32.0,44.3,34.1,27.4,86,59,36,30.42,30.25,0,0,0,0.00
2013-5-1,69.7,53.0,33.3,44.6,37.7,27.9,84,59,37,30.50,30.40,0,0,0,0.00
2013-5-2,80.5,61.2,38.5,48.7,41.7,32.6,81,52,30,30.42,30.23,0,0,0,0.00
2013-5-3,80.1,64.0,41.8,51.1,44.3,35.4,80,51,32,30.30,30.10,0,0,0,0.00
2013-5-4,85.9,65.3,43.9,56.6,44.8,35.2,76,51,18,30.12,29.88,0,0,0,0.00
2013-5-5,61.0,57.8,54.5,47.3,44.7,42.1,68,62,59,29.80,29.74,0,0,0,0.02
2013-5-6,90.0,70.6,48.4,55.3,49.0,40.8,77,49,29,29.91,29.74,0,0,0,0.00
2013-5-7,81.7,60.7,46.4,55.2,47.4,41.3,84,64,37,30.03,29.89,0,0,0,0.00
2013-5-8,78.3,60.4,47.0,56.6,49.2,41.5,84,68,46,30.14,30.02,0,0,0,0.00
2013-5-9,86.6,66.0,47.5,60.9,51.6,42.6,88,63,34,30.19,30.06,0,0,0,0.00
2013-5-10,91.4,67.7,52.2,62.6,53.3,46.7,83,63,32,30.21,30.10,0,0,0,0.00
2013-5-11,95.0,77.1,51.7,62.3,57.3,46.4,84,53,32,30.21,30.00,0,0,0,0.02
2013-5-12,85.0,68.7,57.8,63.5,53.9,48.2,83,61,32,30.14,30.07,0,0,0,0.00
2013-5-13,71.3,60.8,48.6,54.8,50.7,42.3,88,71,48,30.24,30.10,0,0,0,0.03
2013-5-14,77.4,59.4,43.7,50.7,43.6,36.4,90,60,25,30.24,30.10,4,0,4,0.00
2013-5-15,68.6,55.0,48.2,52.2,45.1,37.0,81,70,55,30.13,30.02,8,2,8,0.12
2013-5-16,66.6,56.2,51.3,53.8,49.5,44.6,91,79,54,30.03,29.96,15,3,15,0.15
2013-5-17,71.1,57.4,49.3,52.3,46.6,41.8,87,69,45,30.13,30.02,14,3,14,0.01
2013-5-18,63.0,54.8,50.0,52.7,47.9,44.1,84,78,67,30.31,30.12,17,3,17,0.73
2013-5-19,72.2,58.8,47.7,54.7,48.9,41.9,87,71,47,30.41,30.30,12,3,12,0.00
2013-5-20,82.4,65.3,43.0,54.7,46.6,29.5,91,53,33,30.31,29.95,13,4,13,0.00
2013-5-21,55.3,48.9,42.1,49.1,43.4,36.9,88,82,50,30.06,29.86,24,5,24,0.63
2013-5-22,54.2,46.3,40.0,44.7,41.3,37.3,90,83,68,30.06,30.00,18,7,18,0.26
2013-5-23,60.3,50.4,44.8,49.9,44.1,40.8,89,79,58,30.06,30.02,15,5,15,0.09
2013-5-24,68.4,54.2,45.9,50.2,45.4,41.3,90,74,48,30.11,30.03,15,5,15,0.02
2013-5-25,79.4,56.6,37.6,53.0,45.0,34.7,91,69,34,30.10,29.94,15,3,15,0.16
2013-5-26,68.0,57.0,50.8,53.6,49.6,44.6,90,77,54,30.07,29.97,17,4,17,0.13
2013-5-27,68.8,56.5,49.9,59.5,51.3,45.4,91,83,69,30.00,29.79,20,6,20,0.46
2013-5-28,68.4,58.0,52.2,53.9,49.2,46.2,89,74,49,29.97,29.77,16,5,16,0.13
2013-5-29,65.5,56.2,48.2,56.2,50.0,43.1,92,80,63,30.11,29.70,19,7,19,0.24
2013-5-30,68.2,56.2,46.1,50.2,45.6,42.0,88,69,45,30.27,30.10,10,3,10,0.00
2013-5-31,76.7,58.8,42.5,54.4,46.6,38.9,90,67,40,30.32,30.21,12,3,12,0.00
2013-6-1,84.8,63.4,43.6,57.5,49.3,40.0,89,64,28,30.24,30.02,12,2,12,0.00
2013-6-2,78.5,58.5,52.9,57.5,49.8,46.3,83,74,40,30.09,30.02,12,3,13,0.00
2013-6-3,81.4,62.2,45.2,58.6,49.7,41.6,89,66,39,30.10,30.00,15,4,15,0.00
2013-6-4,85.7,66.9,49.0,59.2,51.6,43.4,82,60,33,30.07,29.97,14,4,14,0.00
2013-6-5,90.5,71.0,51.3,61.6,54.7,46.9,87,60,32,30.08,29.96,11,3,11,0.00
2013-6-6,88.9,71.7,55.8,62.4,55.4,50.1,85,60,30,30.04,29.97,13,3,13,0.00
2013-6-7,95.0,70.5,52.0,60.7,51.7,43.8,79,55,25,30.13,30.05,12,1,12,0.00
2013-6-8,92.0,70.7,53.6,56.0,49.6,41.5,82,53,21,30.15,30.03,12,4,12,0.00
2013-6-9,82.1,65.2,52.9,54.9,48.8,43.5,73,57,29,30.09,29.95,17,6,17,0.00
2013-6-10,82.4,61.5,47.3,51.0,45.6,41.1,82,59,32,30.01,29.88,15,5,15,0.00
2013-6-11,74.9,60.9,51.7,49.3,45.2,41.0,76,58,38,30.17,30.00,14,4,14,0.00
2013-6-12,70.6,58.1,45.4,49.3,45.3,40.1,84,64,43,30.21,30.15,14,3,14,0.00
2013-6-13,71.8,57.8,48.2,56.2,48.9,42.3,88,73,49,30.32,30.21,16,5,16,0.24
2013-6-14,79.4,58.9,42.7,55.2,48.0,39.1,91,70,38,30.31,29.98,17,3,17,0.00
2013-6-15,89.6,64.3,46.4,57.4,50.8,42.2,90,66,29,30.05,29.92,14,3,14,0.00
2013-6-16,86.9,63.8,48.2,57.2,50.5,43.9,87,65,35,30.16,30.05,17,4,17,0.00
2013-6-17,87.1,63.0,48.1,55.9,50.0,43.7,88,66,31,30.15,29.98,20,5,20,0.00
2013-6-18,76.7,61.4,47.2,53.3,48.9,42.9,87,65,41,30.04,29.96,19,5,19,0.00
2013-6-19,76.3,59.3,52.4,51.9,48.6,45.8,86,69,41,30.14,29.98,17,4,17,0.01
2013-6-20,74.2,60.9,52.6,56.4,50.8,45.9,82,70,45,30.15,30.08,12,3,12,0.02
2013-6-21,91.4,64.2,49.5,63.5,49.8,45.5,88,64,28,30.18,30.10,13,2,13,0.00
2013-6-22,90.4,67.3,47.2,56.4,49.6,42.6,91,58,25,30.11,29.87,12,2,12,0.00
2013-6-23,82.3,66.3,59.8,63.4,56.7,50.1,84,72,44,29.89,29.66,14,1,14,0.03
2013-6-24,69.3,60.6,56.0,57.3,53.7,50.4,90,79,59,29.74,29.70,12,3,13,0.07
2013-6-25,70.6,62.9,57.2,61.0,56.8,54.4,93,81,63,29.87,29.69,16,3,16,0.35
2013-6-26,74.0,66.3,58.3,60.0,57.9,55.7,93,75,56,30.03,29.86,9,3,9,0.03
2013-6-27,91.8,73.7,58.1,67.1,61.0,54.6,92,67,41,30.15,30.02,15,3,15,0.00
2013-6-28,97.9,76.0,57.4,68.4,59.6,52.9,88,61,29,30.15,30.02,13,3,13,0.00
2013-6-29,97.9,77.4,59.4,63.3,57.0,51.1,76,53,27,30.12,29.95,11,3,11,0.00
2013-6-30,105.8,77.9,59.4,68.9,60.6,52.9,83,59,26,29.98,29.85,15,3,15,0.00
2013-7-1,106.4,81.3,63.0,72.4,63.1,55.4,79,57,31,30.00,29.92,8,3,8,0.00
2013-7-2,101.9,79.9,62.3,70.1,62.2,53.8,82,58,32,30.07,29.97,13,3,13,0.00
2013-7-3,99.4,76.3,61.2,58.5,53.5,46.6,75,49,19,30.12,30.00,13,4,13,0.00
2013-7-4,90.0,68.7,52.2,56.6,49.8,43.8,79,54,29,30.14,29.98,14,5,16,0.00
2013-7-5,86.4,67.5,49.0,54.7,49.7,43.0,82,56,28,30.07,29.91,17,5,17,0.00
2013-7-6,88.9,66.1,49.1,59.2,51.8,43.8,85,63,34,29.97,29.84,15,4,16,0.00
2013-7-7,95.4,70.6,53.6,63.4,55.0,47.8,85,61,30,29.98,29.86,13,3,13,0.00
2013-7-8,94.5,68.1,50.0,61.3,51.9,44.7,84,60,24,30.06,29.97,14,4,14,0.00
2013-7-9,101.3,75.8,54.0,63.8,55.6,47.8,83,55,22,30.07,29.95,13,3,13,0.00
2013-7-10,95.2,72.7,57.2,58.1,53.3,48.9,77,54,25,30.05,29.89,15,3,15,0.00
2013-7-11,86.0,64.7,50.4,51.8,46.7,40.5,79,55,26,30.07,29.93,15,4,15,0.00
2013-7-12,92.9,64.1,47.2,55.2,47.5,41.3,83,59,25,30.02,29.98,15,2,15,0.00
2013-7-13,104.9,80.3,53.6,53.1,47.3,39.4,72,36,14,30.13,29.99,21,7,21,0.00
2013-7-14,95.4,67.6,51.3,56.5,48.9,40.5,78,55,24,30.07,29.96,14,3,14,0.00
2013-7-16,65.9,61.9,60.8,53.6,52.3,51.1,73,71,63,30.04,29.98,0,0,0,0.00
2013-7-17,99.5,71.7,59.4,60.7,53.5,50.6,75,56,25,30.15,30.04,0,0,0,0.00
2013-7-18,103.7,72.1,51.1,59.7,52.8,45.5,83,56,19,30.19,30.04,0,0,0,0.00
2013-7-19,102.8,74.0,52.2,62.3,54.7,45.9,83,55,24,30.12,29.98,0,0,0,0.00
2013-7-20,101.5,71.6,52.9,60.9,54.5,47.2,83,59,23,30.07,29.91,0,0,0,0.00
2013-7-21,105.8,75.7,52.6,58.7,53.9,46.8,82,53,19,29.97,29.85,0,0,0,0.00
2013-7-22,104.8,75.3,55.4,59.8,52.4,47.4,83,52,17,30.02,29.91,0,0,0,0.00
2013-7-23,112.5,77.2,54.5,61.8,53.4,45.2,81,51,13,30.02,29.91,0,0,0,0.00
2013-7-24,111.2,80.4,58.5,59.9,53.3,45.3,75,45,16,30.02,29.92,0,0,0,0.00
2013-7-25,109.4,79.8,57.6,58.2,51.2,43.6,76,44,12,30.06,29.96,0,0,0,0.00
2013-7-26,114.3,83.3,60.5,56.2,51.1,44.9,61,36,14,30.12,30.01,0,0,0,0.00
2013-7-27,99.5,71.8,52.2,54.8,46.3,41.2,70,44,19,30.17,29.98,0,0,0,0.00
2013-7-28,99.2,68.6,47.7,56.8,48.3,41.0,82,53,23,30.07,29.92,0,0,0,0.00
2013-7-29,61.6,55.6,51.1,51.3,47.3,44.5,81,74,63,29.99,29.96,0,0,0,0.00
2013-8-25,68.6,63.5,60.7,59.6,58.3,56.2,85,83,73,29.92,29.90,4,1,4,0.01
2013-8-26,87.7,67.9,54.5,62.3,54.4,50.5,89,65,32,29.96,29.89,18,4,18,0.00
2013-8-27,94.0,69.3,54.2,62.5,55.3,48.7,84,63,31,29.96,29.80,17,4,17,0.00
2013-8-28,88.6,73.3,59.8,65.4,59.4,55.4,87,64,40,29.93,29.85,15,3,15,0.02
2013-8-29,86.4,69.8,62.5,68.0,61.4,57.9,88,76,49,30.11,29.88,16,4,16,0.07
2013-8-30,96.5,74.2,63.2,67.6,61.2,54.7,90,67,32,30.16,30.03,11,2,11,0.06
2013-8-31,97.2,72.1,54.0,65.2,57.2,49.8,88,63,32,30.05,29.84,14,3,14,0.00
2013-9-1,95.2,72.1,54.7,60.5,54.8,49.4,86,58,29,29.94,29.82,18,4,18,0.00
2013-9-2,83.5,70.4,62.6,60.5,56.2,52.7,77,62,39,29.96,29.89,14,4,14,0.00
2013-9-3,86.9,70.8,59.8,59.6,54.4,51.8,76,58,35,30.04,29.96,15,3,15,0.00
2013-9-4,87.5,69.8,60.1,60.9,55.8,52.6,77,63,39,30.07,30.01,11,3,11,0.00
2013-9-5,71.6,62.3,58.0,60.2,55.9,51.8,92,80,64,30.13,30.02,14,2,14,0.58
2013-9-6,86.6,66.1,56.9,62.5,57.7,52.0,93,76,42,30.20,30.12,11,4,11,0.24
2013-9-7,86.8,65.4,53.3,64.1,56.5,49.8,89,75,42,30.12,29.96,12,2,12,0.00
2013-9-8,92.0,69.2,52.9,65.5,57.6,49.6,90,70,36,30.08,29.97,15,3,15,0.00
2013-9-9,92.7,72.9,54.4,64.6,58.9,50.2,88,64,35,30.04,29.89,19,4,19,0.00
2013-9-10,97.9,74.1,57.8,68.6,61.6,53.9,88,67,36,29.92,29.76,10,3,10,0.00
2013-9-11,89.5,71.7,60.3,64.1,58.9,54.4,86,67,40,30.00,29.81,15,4,15,0.00
2013-9-12,97.2,69.4,59.8,67.8,58.6,54.4,85,71,36,30.02,29.92,10,3,10,0.00
2013-9-13,90.4,67.5,56.7,68.0,58.6,52.6,89,75,45,29.99,29.83,8,3,8,0.00
2013-9-14,86.9,65.5,57.2,67.8,59.2,53.1,90,81,51,29.86,29.73,10,2,10,0.00
2013-9-15,70.9,63.3,59.0,60.2,56.6,53.6,90,79,64,29.94,29.77,12,4,13,0.00
2013-9-16,81.9,65.6,57.8,58.8,54.9,52.5,83,70,42,30.01,29.90,11,2,12,0.00
2013-9-17,70.6,61.0,55.8,59.1,54.0,50.9,89,78,57,30.06,29.87,18,4,18,0.00
2013-9-18,82.6,61.6,50.2,57.3,51.6,43.9,90,72,37,30.11,30.00,11,2,11,0.00
2013-9-19,89.5,61.8,42.7,57.2,48.7,39.1,91,66,28,30.01,29.80,11,2,11,0.00
2013-9-20,74.3,57.7,47.2,56.5,51.0,42.7,89,79,46,29.81,29.69,22,3,22,0.00
2013-9-21,68.2,56.9,52.2,58.3,53.2,49.1,92,88,64,29.84,29.70,9,2,9,0.00
2013-9-22,63.7,57.0,52.2,56.6,52.5,49.3,91,85,67,29.94,29.76,19,6,19,0.00
2013-9-23,64.1,58.3,54.2,56.3,53.8,51.6,92,85,72,30.03,29.93,8,4,8,0.00
2013-9-24,62.3,54.8,50.0,54.4,51.5,47.4,92,89,72,30.01,29.92,8,3,8,0.00
2013-9-25,62.8,52.8,47.9,51.3,47.8,45.2,92,84,65,30.07,29.91,13,3,13,0.00
2013-9-26,68.2,55.2,45.0,52.2,47.7,42.1,93,77,51,30.21,30.07,5,2,5,0.00
2013-9-27,58.5,50.5,41.8,52.9,46.6,38.8,91,86,76,30.21,30.01,8,4,8,0.00
2013-9-28,68.6,59.5,52.2,58.0,54.3,49.9,92,83,65,30.00,29.62,16,8,16,0.00
2013-9-29,59.2,54.6,52.6,57.5,51.8,50.1,94,91,87,29.79,29.54,24,10,26,1.52
2013-9-30,60.5,54.3,50.4,54.5,49.6,46.4,92,84,71,30.05,29.71,22,6,22,0.59
2013-10-1,63.5,52.0,40.9,53.6,45.8,37.3,90,80,54,30.22,30.04,10,3,15,0.17
2013-10-2,55.8,45.8,36.2,50.8,42.0,33.2,92,87,74,30.22,30.11,12,2,13,0.30
2013-10-3,63.0,48.2,37.1,51.1,42.8,34.9,94,82,58,30.41,30.21,10,2,10,0.00
2013-10-4,66.1,46.7,35.8,53.4,41.8,32.9,92,84,62,30.45,30.33,10,2,10,0.00
2013-10-5,70.9,49.7,37.1,55.8,43.6,34.4,93,81,53,30.34,30.15,7,1,7,0.00
2013-10-6,78.8,57.2,37.3,57.5,44.9,34.3,93,68,31,30.15,29.99,14,3,14,0.00
2013-10-7,64.4,55.6,47.2,52.9,48.0,43.2,90,76,53,30.20,30.03,16,4,16,0.00
2013-10-8,55.3,50.2,46.1,51.2,46.8,43.1,91,88,83,30.20,30.02,8,2,9,0.00
2013-10-9,61.4,48.5,40.3,51.1,43.6,37.6,92,84,65,30.09,29.98,12,3,14,0.00
2013-10-10,65.3,51.8,39.2,51.7,43.5,36.5,92,76,41,30.08,29.97,6,2,6,0.00
2013-10-11,62.5,54.9,46.6,48.7,45.0,41.9,86,70,55,30.15,30.10,9,2,9,0.00
2013-10-12,56.2,47.6,42.8,48.5,43.1,39.1,89,84,74,30.11,30.07,5,1,5,0.00
2013-10-16,67.0,54.3,34.9,50.1,44.3,31.7,90,70,50,30.17,30.11,7,1,7,0.00
2013-10-17,63.5,47.5,36.9,52.7,42.0,33.3,90,82,62,30.22,30.13,8,1,8,0.00
2013-10-18,66.4,49.7,40.1,52.5,43.4,36.5,92,80,56,30.18,30.08,7,1,8,0.00
2013-10-19,68.4,49.5,36.2,53.6,42.8,33.2,92,79,54,30.16,30.10,7,1,7,0.00
2013-10-20,64.1,48.0,39.4,52.7,43.0,35.8,91,83,58,30.16,30.06,7,1,7,0.00
2013-10-21,64.8,48.9,39.2,54.0,44.2,36.3,92,84,65,30.10,29.98,6,1,7,0.00
2013-10-22,70.2,51.9,40.3,56.1,45.7,37.6,92,80,54,30.06,29.97,5,1,7,0.00
2013-10-23,68.9,51.3,39.6,57.2,45.8,36.8,92,82,62,30.02,29.96,6,1,6,0.00
2013-10-24,61.6,49.9,42.5,54.9,46.1,39.2,92,87,76,30.11,30.00,6,1,6,0.00
2013-10-25,53.3,50.2,43.4,50.1,47.5,40.7,92,91,88,30.28,30.11,7,2,7,0.00
2013-10-26,52.2,50.0,48.6,48.8,47.1,45.9,92,90,86,30.29,30.18,9,2,10,0.00
2013-10-27,56.5,50.5,43.6,52.5,46.7,39.4,92,87,77,30.20,29.84,14,4,14,0.00
2013-10-28,59.6,45.9,36.2,48.3,39.2,30.6,93,79,52,29.91,29.79,13,2,13,0.00
2013-10-29,57.2,40.6,29.2,41.3,33.0,25.7,90,76,50,30.09,29.92,7,1,7,0.00
2013-10-30,62.6,45.4,29.5,47.6,37.9,26.1,90,76,54,30.21,30.09,6,1,6,0.00
2013-10-31,61.7,54.5,48.6,52.9,48.7,42.7,91,81,66,30.28,30.20,9,2,9,0.00
2013-11-1,57.6,52.5,49.3,51.7,48.9,46.3,92,88,80,30.28,29.96,8,3,8,0.00
2013-11-2,57.2,50.8,43.9,50.8,46.6,40.6,92,86,62,30.16,29.84,24,5,24,0.00
2013-11-3,52.0,46.4,41.9,45.1,42.2,38.6,89,85,75,30.23,30.15,9,3,10,0.00
2013-11-4,51.7,47.6,42.3,45.5,42.9,39.2,91,84,71,30.23,30.16,12,4,14,0.00
2013-11-5,55.3,51.6,47.9,51.2,48.5,45.0,92,89,85,30.27,30.15,11,3,11,0.00
2013-11-6,66.2,57.8,53.5,59.1,53.8,50.9,92,87,75,30.29,30.12,7,2,7,0.35
2013-11-7,57.1,52.0,42.3,53.7,48.6,39.9,92,88,81,30.19,29.98,28,4,28,0.16
2013-11-8,58.3,48.8,41.6,49.7,44.2,38.8,92,85,66,30.24,30.11,6,2,6,0.00
2013-11-9,54.7,47.4,41.8,47.1,43.2,39.1,92,85,73,30.12,30.04,6,2,6,0.00
2013-11-10,55.6,46.7,42.3,49.9,43.4,39.5,92,88,80,30.10,30.05,7,1,7,0.00
2013-11-11,48.1,45.7,43.6,46.3,43.7,41.7,94,93,91,30.15,30.03,5,1,5,0.01
2013-11-12,57.8,50.6,45.0,55.2,48.6,42.8,94,93,89,30.44,30.11,6,1,6,0.40
2013-11-13,52.6,49.5,47.7,50.0,47.5,45.3,94,93,90,30.48,30.29,10,3,10,0.01
2013-11-14,54.4,48.9,43.0,47.6,45.2,40.6,92,87,75,30.29,30.11,7,2,7,0.10
2013-11-15,50.4,45.6,40.5,45.8,42.2,38.1,93,88,80,30.11,29.71,13,4,13,0.02
2013-11-16,54.0,48.6,45.5,47.3,43.9,41.3,93,84,68,29.93,29.66,17,5,17,0.08
2013-11-17,56.5,49.7,45.7,45.9,43.2,41.0,88,79,64,30.07,29.93,15,6,16,0.00
2013-11-18,54.2,49.3,45.5,48.2,43.9,40.1,90,81,69,30.03,29.80,14,5,16,0.22
2013-11-19,56.5,50.7,41.8,53.5,47.9,36.6,93,90,82,30.01,29.77,17,6,17,0.59
2013-11-20,44.3,37.7,32.0,37.8,32.6,27.6,87,82,74,30.32,30.01,20,6,20,0.00
2013-11-21,45.0,32.9,24.3,30.7,24.9,19.1,84,73,53,30.54,30.32,14,3,16,0.00
2013-11-22,45.4,30.9,19.6,31.4,23.4,15.7,87,74,53,30.54,30.36,12,2,13,0.00
2013-11-23,49.0,33.9,22.1,34.5,25.8,18.2,86,73,53,30.36,30.15,10,2,10,0.00
2013-11-24,50.0,34.3,23.0,37.3,27.4,19.4,87,77,56,30.28,30.16,6,1,6,0.00
2013-11-25,50.0,33.9,23.6,40.7,28.9,20.3,89,82,68,30.36,30.28,5,1,5,0.00
2013-11-26,47.0,35.7,27.7,40.1,31.6,24.3,90,85,75,30.29,30.08,6,1,6,0.00
2013-11-27,49.0,37.0,29.2,40.6,32.6,26.4,92,84,69,30.08,29.96,5,1,6,0.00
2013-11-28,49.3,35.5,27.4,40.7,30.9,24.6,92,84,68,30.22,30.02,6,1,6,0.00
2013-11-29,50.4,38.4,26.1,42.8,34.1,23.3,92,85,73,30.38,30.22,7,1,7,0.02
2013-11-30,56.5,45.1,32.9,49.3,40.9,30.3,92,86,76,30.42,30.30,6,1,6,0.00
2013-12-1,57.2,53.4,50.0,52.6,49.1,43.9,91,85,78,30.31,30.06,19,7,19,0.02
2013-12-2,52.6,44.9,34.0,50.6,41.6,31.3,93,88,78,30.09,29.98,14,5,14,0.58
2013-12-3,41.0,34.6,25.6,38.3,31.6,21.1,93,89,81,30.24,30.07,12,2,12,0.00
2013-12-4,36.9,26.6,19.3,29.0,21.5,15.2,90,81,68,30.32,30.23,9,2,10,0.00
2013-12-5,33.1,23.2,15.7,24.9,18.2,12.2,89,81,68,30.29,30.14,5,1,5,0.00
2013-12-6,30.4,26.4,23.8,27.0,22.6,19.1,88,85,82,30.14,29.91,12,4,12,0.00
2013-12-7,27.0,18.0,6.1,19.3,12.0,1.7,84,77,66,30.42,30.02,11,2,11,0.00
2013-12-8,23.8,10.7,0.4,16.0,5.6,-3.9,85,80,69,30.59,30.41,7,1,8,0.00
2013-12-9,31.7,16.4,4.7,24.3,11.5,0.8,86,81,73,30.63,30.53,4,1,4,0.00
2013-12-10,35.5,21.5,12.8,29.3,17.2,9.3,87,84,76,30.55,30.40,3,1,3,0.03
2013-12-11,34.2,22.7,15.3,29.6,19.0,12.1,90,86,80,30.41,30.21,5,1,5,0.00
2013-12-12,41.6,30.5,16.9,36.7,27.1,13.6,92,87,81,30.25,30.14,6,1,6,0.28
2013-12-13,51.8,40.1,31.7,46.8,37.2,29.4,93,90,82,30.45,30.25,5,1,5,0.00
2013-12-14,46.4,37.3,31.7,43.1,34.9,29.4,93,91,87,30.47,30.40,6,1,6,0.01
2013-12-15,54.0,41.2,33.3,46.1,37.5,31.1,94,87,72,30.48,30.42,6,1,6,0.00
2013-12-16,42.8,40.9,39.2,40.5,38.7,37.1,93,92,89,30.47,30.25,10,2,10,0.01
2013-12-17,43.2,38.5,35.8,39.9,36.1,33.5,93,91,87,30.25,30.17,7,2,7,0.01
2013-12-18,43.0,38.5,35.5,40.1,36.3,33.2,94,92,88,30.19,30.05,18,2,18,0.04
2013-12-19,35.8,33.6,31.0,33.2,31.2,29.1,93,91,88,30.31,30.14,9,2,9,0.00
2013-12-20,45.9,38.5,32.8,43.6,35.2,29.9,92,88,77,30.25,29.98,13,3,13,0.07
2013-12-21,54.0,48.5,45.7,49.4,45.4,42.9,93,89,81,30.27,30.01,8,3,8,0.00
2013-12-22,57.2,48.8,41.4,51.5,45.5,38.7,93,89,81,30.37,30.27,5,1,6,0.03
2013-12-23,53.6,46.8,36.9,49.7,44.2,34.2,93,90,86,30.52,30.35,8,2,8,0.04
2013-12-24,39.2,37.4,34.6,37.4,35.3,32.4,94,92,91,30.58,30.46,8,2,8,0.00
2013-12-25,38.0,35.9,34.2,36.1,33.9,32.3,94,93,89,30.47,30.37,7,2,7,0.00
2013-12-26,36.7,34.2,32.8,34.6,32.4,31.0,94,93,91,30.39,30.22,5,1,5,0.01
2013-12-27,46.1,35.9,30.8,43.1,33.9,29.3,95,92,87,30.37,30.18,9,2,9,0.00
2013-12-28,40.1,37.9,35.5,38.1,35.8,33.8,94,92,89,30.49,30.37,10,2,10,0.01
2013-12-29,41.4,38.6,36.4,37.8,35.7,33.9,92,89,84,30.44,30.27,7,2,8,0.00
2013-12-30,47.9,39.2,35.5,42.9,36.5,33.5,93,90,82,30.27,30.18,5,1,5,0.00
2013-12-31,55.3,41.5,33.1,48.3,38.2,30.8,94,88,75,30.33,30.22,5,1,5,0.00
2014-1-1,40.7,37.5,32.6,38.8,35.5,30.3,94,93,91,30.35,30.25,5,1,6,0.01
2014-1-2,52.2,42.0,33.5,47.5,39.0,31.6,94,89,83,30.26,30.08,5,2,5,0.00